Wind_Speed
21 20 20 19 18 18 18 18 18 18 18 18 18 18 18 18 17 17 17 16 15 14 14 13 13 12 12 12 12 12 12 12 11 11 11 10 10 10 10 10 10 9 8 8 9 9 9 9 9 10 11 12 13 13 14 14 14 13 13 12 12 12 13 14 14 15 14 14 13 13 13 13 13 13 13 14 14 15 15 16 16 17 18 19 19 19 20 21
24 23 23 22 22 21 20 20 20 20 20 19 19 19 19 19 19 19 19 18 18 17 16 15 15 14 14 13 14 14 14 13 13 13 12 12 12 12 12 11 11 10 10 10 10 10 11 10 10 10 11 11 12 13 13 14 14 14 14 14 14 13 14 14 15 16 16 16 15 15 15 15 14 14 14 14 15 15 16 16 16 16 18 18 19 19 19 20
26 26 26 26 25 24 24 23 23 22 22 22 21 21 21 20 20 20 20 20 20 19 19 18 17 17 16 15 15 15 16 15 15 14 14 13 13 14 14 13 13 12 12 12 11 11 11 11 11 11 11 11 12 12 13 13 14 15 15 15 15 15 15 15 15 15 16 17 17 17 17 17 16 16 16 15 15 16 16 16 16 16 17 17 18 19 19 20
29 29 29 28 28 28 27 26 26 25 25 24 24 23 23 23 23 22 22 21 21 21 21 21 20 19 19 18 17 17 17 17 17 16 16 15 15 15 15 15 15 15 15 15 14 14 14 13 13 12 12 13 12 13 13 13 14 15 15 15 16 17 17 17 16 16 16 17 17 18 19 20 19 19 19 18 18 18 18 18 17 18 18 18 18 19 20 20
31 31 31 31 31 30 30 30 29 28 27 27 27 26 26 25 25 25 24 24 23 23 23 23 22 22 21 20 20 19 19 19 19 18 18 17 16 16 16 16 16 17 17 17 17 17 17 16 15 15 14 14 14 14 14 14 15 15 16 16 16 17 17 17 17 17 17 18 18 18 19 21 21 22 22 22 21 20 21 21 21 20 20 20 20 20 21 21
32 33 33 33 33 33 33 32 32 31 30 30 29 29 29 28 28 27 27 27 26 25 25 25 24 24 24 23 22 22 22 21 21 21 20 20 19 19 18 18 18 19 19 19 19 20 20 19 18 17 16 16 16 16 16 16 16 17 17 17 18 18 18 18 18 18 19 19 19 19 20 21 21 22 24 25 23 22 23 23 23 23 24 23 23 23 23 23
33 33 34 34 35 35 35 35 35 34 33 33 32 31 31 31 30 30 30 29 29 28 27 27 26 26 26 26 25 24 24 24 23 23 23 22 22 21 21 20 20 21 21 21 21 22 22 22 21 21 20 19 18 18 18 18 18 19 20 20 20 20 19 20 19 19 19 20 20 20 20 21 21 22 24 26 24 22 24 24 25 26 26 27 26 26 26 25
32 33 34 35 36 36 36 37 37 36 36 35 34 34 33 33 33 32 32 31 31 30 30 29 28 28 28 28 27 27 26 26 26 25 25 25 24 24 24 23 23 23 23 23 24 24 24 24 24 23 23 23 22 21 20 20 20 21 22 22 23 22 22 21 21 21 20 20 20 20 21 21 21 23 25 27 24 22 24 24 25 27 27 28 29 29 28 28
32 33 34 35 36 37 37 37 38 38 38 38 37 36 36 36 35 35 34 33 33 32 31 31 30 30 29 30 29 29 29 28 28 28 27 27 26 26 26 26 26 25 25 26 26 27 27 26 26 26 26 25 25 25 24 23 23 23 23 24 25 25 24 24 24 23 22 22 21 20 22 21 21 23 25 27 24 23 25 25 25 27 27 29 29 30 30 30
31 32 33 34 35 36 37 38 38 39 39 39 39 38 38 38 38 37 36 36 35 34 33 32 32 32 31 31 31 31 31 30 30 30 30 30 29 28 28 29 28 28 28 28 29 29 29 29 29 28 28 28 27 27 27 27 26 26 26 26 27 26 27 27 27 26 25 24 23 21 22 22 22 22 25 27 25 24 26 26 26 27 27 29 29 30 30 31
31 32 33 34 35 36 37 38 38 39 39 40 40 40 39 39 39 39 39 38 37 36 36 35 34 33 33 33 32 32 33 32 32 32 32 31 31 30 30 31 31 31 31 31 31 31 32 32 31 31 31 31 30 30 30 29 30 29 29 29 29 29 29 29 29 30 29 28 27 24 21 22 22 21 25 29 27 26 26 27 28 28 28 29 30 31 31 31
32 32 32 33 34 35 36 37 38 39 39 40 40 40 40 40 40 41 40 40 40 39 38 37 37 36 35 34 34 34 34 34 34 34 33 33 33 32 32 33 33 33 33 33 33 34 34 34 34 33 33 33 33 33 33 32 32 33 33 32 31 31 31 31 32 32 32 32 31 29 22 18 21 24 27 31 29 27 27 29 30 29 29 30 31 32 32 33
33 33 33 33 34 34 35 36 37 38 39 40 40 41 41 40 40 41 41 41 41 41 40 40 39 39 38 36 36 36 36 35 35 35 35 35 34 34 34 34 35 35 35 36 36 36 36 36 36 36 35 35 35 36 36 35 35 35 35 35 34 34 33 33 34 33 34 35 35 36 26 15 20 27 29 32 32 30 28 29 31 31 31 32 32 33 33 34
35 35 34 34 34 35 35 36 37 38 39 40 40 41 42 41 41 41 41 41 42 42 42 42 41 41 40 39 39 38 37 37 37 37 37 37 36 36 36 37 37 37 37 37 38 38 38 38 38 38 37 37 37 37 37 37 37 38 38 37 37 36 35 35 36 36 36 37 37 39 34 20 19 28 31 32 33 33 30 30 32 32 33 33 34 34 34 35
36 36 36 36 36 36 36 36 37 37 39 40 41 41 42 42 41 42 42 42 42 42 43 43 43 43 42 41 40 40 39 39 39 39 39 39 38 38 38 39 39 39 39 39 39 40 40 40 40 39 39 39 39 39 39 39 38 39 39 39 39 39 38 37 38 39 39 39 39 41 40 29 21 26 32 33 34 34 32 32 34 34 34 35 36 37 36 35
37 37 38 38 38 38 38 37 37 38 39 40 41 42 43 42 42 42 42 42 43 43 44 44 44 45 44 42 41 41 41 41 40 40 40 41 41 40 40 41 41 41 41 40 41 41 41 41 41 41 41 41 40 40 41 41 39 39 40 41 41 41 41 40 40 42 43 43 41 42 44 37 28 27 31 34 35 35 33 34 35 35 35 36 38 39 37 37
39 39 39 39 39 39 40 39 38 39 39 40 41 42 43 43 43 43 43 43 44 44 45 45 45 46 46 43 42 43 43 43 42 42 42 42 42 42 42 42 42 43 42 42 42 42 42 42 42 42 42 42 41 42 44 43 40 40 41 41 42 42 43 43 42 44 47 47 45 45 46 42 36 31 31 34 37 36 34 35 37 36 36 38 40 40 38 37
41 41 40 40 40 40 41 41 40 40 40 41 42 42 44 44 44 43 44 45 45 45 46 46 46 48 47 44 44 44 44 44 44 44 43 43 44 43 43 43 43 44 43 42 42 42 43 43 43 43 42 42 42 44 46 44 42 43 43 43 44 44 45 44 44 47 50 51 48 48 49 46 41 35 32 34 38 38 36 36 38 37 36 38 40 40 39 38
43 42 42 41 41 41 42 43 43 43 43 43 43 44 44 45 45 45 45 45 46 47 48 47 48 49 47 45 46 46 46 46 45 45 45 44 45 45 45 45 45 44 44 43 43 43 44 45 44 42 42 43 44 45 46 45 45 45 45 46 46 46 47 45 46 49 51 53 51 49 52 50 44 39 36 35 39 40 39 39 39 38 37 38 39 39 38 38
45 45 44 43 42 42 42 43 43 44 45 45 46 46 46 46 47 47 46 46 47 48 49 49 49 49 48 47 47 47 47 47 46 46 45 45 46 46 46 46 45 45 45 44 45 45 45 46 44 43 43 45 46 46 46 46 46 46 46 47 47 48 48 46 47 50 51 54 52 49 53 52 45 42 39 37 39 41 41 41 39 38 38 37 38 37 37 37
47 47 47 46 45 44 44 43 44 45 46 47 48 49 49 48 49 49 48 48 49 49 50 50 51 50 48 48 48 48 48 47 46 46 46 46 47 48 48 47 47 46 45 45 46 46 47 47 44 43 44 46 46 46 46 47 47 47 47 47 47 47 48 47 48 50 50 53 53 50 52 51 46 44 41 37 40 42 42 42 40 39 38 36 36 36 36 36
49 49 49 48 48 47 47 46 45 46 47 48 49 51 51 52 52 52 51 51 50 50 51 51 52 51 49 49 49 48 48 47 46 46 45 46 46 48 48 47 47 46 45 46 46 46 47 45 42 42 43 44 44 44 45 46 47 47 47 47 47 46 47 49 48 49 50 52 53 52 53 50 46 46 42 38 40 43 43 43 41 39 36 34 33 32 33 34
51 51 50 50 50 50 50 49 48 48 48 49 50 51 52 53 54 55 56 56 53 51 52 53 53 52 51 50 49 49 49 46 45 44 44 44 45 47 47 46 46 46 45 44 45 46 46 42 40 40 41 42 43 43 43 45 46 46 46 47 46 45 47 49 47 47 48 51 52 53 54 50 45 46 43 38 39 42 45 45 41 39 37 34 30 28 30 32
54 53 53 52 52 51 52 52 51 51 50 50 51 53 54 55 56 57 58 62 61 55 53 54 55 54 53 51 50 49 48 47 45 43 42 44 45 47 47 46 46 45 43 44 45 47 45 42 41 42 42 43 44 44 44 46 47 47 46 46 46 45 47 48 48 48 47 49 50 53 56 51 46 47 44 40 40 41 45 46 43 41 38 32 27 26 28 31
56 55 55 54 53 53 54 55 54 53 53 52 53 53 54 56 57 58 60 65 68 61 55 56 57 55 54 53 52 50 49 48 46 44 43 45 46 47 48 48 48 46 45 46 49 50 47 44 45 45 44 45 46 46 46 48 50 49 47 46 46 47 47 48 49 49 49 49 49 52 56 53 48 49 47 44 43 42 41 42 43 43 39 32 28 27 29 31
56 56 57 57 56 55 56 56 55 54 54 54 54 54 54 55 56 58 61 67 73 68 61 60 60 57 54 53 53 52 53 51 47 46 46 46 47 48 50 50 50 49 49 50 53 53 50 47 48 48 48 48 48 48 47 48 52 52 48 46 47 48 48 48 49 50 52 52 52 52 54 57 57 53 49 48 48 44 40 39 41 43 41 36 31 31 32 33
55 55 56 57 57 57 57 58 57 56 55 54 55 55 54 54 54 55 58 66 74 71 66 65 62 60 56 53 53 53 55 53 49 49 49 48 49 50 51 51 50 51 51 52 55 54 51 50 50 50 51 51 50 48 47 48 52 53 49 47 48 48 49 49 49 51 53 55 56 52 50 60 66 59 53 52 50 45 42 40 40 41 41 39 36 34 34 35
54 54 55 56 57 57 58 58 58 57 56 55 55 55 55 54 54 54 56 65 72 71 69 67 64 63 59 55 53 53 54 54 53 53 51 50 51 51 51 51 51 52 52 54 56 54 52 53 52 51 52 51 49 48 47 48 51 52 51 49 49 48 49 50 51 53 54 57 59 53 49 60 68 63 58 54 48 44 42 41 41 40 38 37 38 38 38 39
55 54 54 55 55 56 56 57 58 57 57 56 56 56 56 55 55 55 58 66 71 69 68 67 64 64 62 58 55 52 52 53 53 53 52 51 51 51 51 51 51 53 52 54 55 53 53 53 52 52 50 49 48 48 48 48 50 51 51 51 51 51 51 53 54 54 56 59 60 54 51 60 67 63 56 50 46 46 44 42 41 38 34 35 38 40 40 40
56 55 55 55 55 55 55 55 56 56 56 56 57 57 57 56 56 57 63 69 69 67 67 66 64 63 63 61 58 55 54 53 53 53 52 52 51 51 51 51 51 52 52 54 53 51 51 52 51 50 49 49 49 49 49 49 50 50 52 53 53 54 55 56 56 55 57 60 60 55 53 59 64 60 52 48 47 48 46 43 41 38 35 36 39 40 39 38
57 57 56 55 55 56 55 55 55 55 55 56 56 57 57 57 58 62 69 70 67 65 66 65 62 60 60 60 60 58 56 54 53 53 53 52 52 53 52 51 52 52 53 54 52 50 51 51 51 50 49 49 49 50 51 51 52 51 52 53 55 57 58 58 58 56 58 61 61 58 56 58 62 58 51 49 49 49 46 43 41 39 39 41 41 38 35 35
59 59 58 56 56 56 57 57 57 56 57 57 57 58 58 59 62 67 70 68 65 64 63 61 60 58 57 58 59 59 58 56 54 53 53 54 54 55 54 54 53 53 54 54 52 51 52 52 52 52 50 49 50 51 52 53 52 52 53 53 55 58 59 59 58 58 60 62 61 59 59 60 59 54 50 50 49 47 47 46 43 41 42 44 40 35 33 34
61 61 60 59 58 58 58 59 58 58 58 58 59 59 58 61 67 69 68 65 65 64 61 60 60 59 58 58 58 58 59 58 57 55 55 55 56 56 55 55 54 53 54 53 53 53 55 55 54 52 51 51 52 52 53 54 54 54 54 54 55 57 58 58 59 60 63 63 60 60 60 60 57 51 49 50 48 46 48 50 47 44 43 41 37 35 36 38
63 62 62 62 61 60 59 60 61 61 62 62 62 60 60 65 71 70 68 66 64 62 62 61 60 59 59 59 58 57 58 58 58 57 57 57 58 57 56 55 53 52 52 53 55 56 57 58 57 54 53 53 54 53 54 54 55 55 55 55 56 56 54 56 59 61 63 62 60 60 60 57 55 54 53 54 52 49 49 51 50 45 41 37 35 36 37 39
65 64 64 63 62 61 60 61 63 63 64 64 64 64 64 67 69 69 67 66 64 63 62 61 60 60 61 60 58 57 56 56 56 57 58 59 59 58 56 54 53 52 53 55 56 56 58 60 59 57 56 55 55 55 55 55 56 58 57 57 57 54 52 56 59 59 58 59 61 60 59 57 55 57 58 58 56 52 50 51 49 43 38 35 35 36 37 38
67 66 65 65 64 63 63 63 63 64 66 66 67 67 66 65 67 67 66 66 66 65 64 63 62 62 62 62 60 57 56 57 56 57 58 59 59 58 57 55 54 53 54 55 56 56 59 59 58 58 58 56 56 56 56 56 57 58 58 58 57 55 54 57 57 55 55 59 61 60 61 61 59 61 62 59 57 54 50 49 47 42 38 37 38 38 38 39
69 67 66 65 65 66 67 67 67 67 67 68 69 67 63 63 64 65 65 65 66 66 66 66 64 64 64 63 62 59 60 61 60 60 60 59 60 59 57 56 56 56 55 55 56 57 60 60 58 58 59 58 58 58 59 59 58 58 58 56 56 57 57 57 57 56 56 60 62 61 63 65 65 65 65 61 58 54 49 46 46 43 39 40 42 41 40 42
70 70 68 65 65 67 68 69 71 72 71 71 69 64 62 62 60 61 64 65 65 67 67 66 65 65 65 65 64 63 64 65 64 65 65 64 64 63 60 59 58 58 57 57 59 60 61 61 60 61 62 61 60 60 62 62 60 59 59 58 59 61 61 59 58 57 57 60 62 61 64 67 67 65 63 60 58 55 49 47 48 45 41 43 44 43 44 48
67 70 68 64 64 68 70 71 72 73 75 75 73 68 65 65 64 66 68 68 66 68 68 67 67 67 67 67 67 66 66 66 65 66 67 67 67 66 65 64 63 62 62 62 63 63 62 63 64 64 63 62 61 63 64 62 61 61 61 62 64 64 63 60 57 56 56 59 60 61 64 67 66 64 61 60 58 53 49 49 49 47 45 47 48 46 50 57
61 66 68 65 66 69 71 72 72 73 73 74 73 70 66 66 66 67 69 70 71 72 72 71 70 70 69 69 69 67 67 67 67 67 68 67 67 67 66 67 67 65 64 63 64 64 64 65 66 64 64 64 63 63 61 60 61 63 65 66 67 66 63 60 58 57 57 60 61 62 66 67 65 64 63 61 57 53 51 52 51 48 49 52 52 50 54 60
59 64 67 64 66 69 70 71 73 74 74 71 70 69 68 67 66 66 68 70 72 74 75 75 75 74 73 72 71 70 69 71 71 71 70 68 65 64 63 65 65 64 62 62 62 63 64 65 65 64 63 63 61 60 60 61 62 64 66 67 67 64 61 60 61 58 59 63 63 64 69 69 65 64 62 60 58 56 55 55 53 51 52 55 56 56 57 59
63 67 66 63 62 61 61 65 69 75 76 71 68 67 67 67 66 67 70 72 73 74 75 77 77 77 77 76 73 72 73 75 75 74 73 70 67 65 63 63 65 64 64 64 63 62 63 64 65 63 61 59 58 57 59 60 61 63 65 64 62 60 59 61 62 59 59 62 62 65 71 71 66 63 61 58 58 57 57 56 55 55 55 57 58 58 59 58
70 73 74 74 72 65 63 66 71 76 77 71 67 67 66 66 67 68 70 72 72 73 73 74 75 76 77 75 74 75 76 78 79 78 76 74 71 68 65 64 65 65 63 63 64 63 62 63 63 62 61 59 57 57 59 61 63 64 62 58 56 56 56 58 61 59 58 61 64 68 73 72 67 62 58 57 56 57 57 55 55 55 55 58 59 56 55 56
77 78 79 82 83 80 78 77 77 79 78 73 71 69 67 67 67 65 67 69 69 69 71 73 74 76 76 75 76 77 77 79 79 78 76 74 72 68 66 66 66 64 63 63 64 64 64 63 63 62 63 62 60 60 62 63 63 61 57 54 55 56 56 58 61 60 62 67 69 70 74 73 66 60 57 56 57 58 55 54 55 55 56 58 57 54 54 56
77 79 80 81 84 87 87 84 82 81 79 77 76 74 73 73 70 65 66 69 69 68 70 71 72 74 74 75 76 76 76 77 78 76 74 73 70 68 68 69 68 66 65 64 64 64 65 66 65 65 66 66 64 63 63 62 62 62 61 60 61 60 60 60 61 63 70 74 72 71 76 74 66 59 55 55 58 56 52 52 55 55 55 56 55 56 59 58
79 80 79 79 81 85 87 87 87 87 84 81 80 77 75 75 73 69 69 71 72 71 71 69 68 68 69 71 72 74 74 74 75 74 73 71 70 70 72 72 70 68 68 67 67 67 68 69 70 70 71 71 67 62 60 62 66 68 67 66 66 66 65 64 66 71 75 76 74 73 76 74 66 58 55 55 57 54 50 51 53 52 53 53 55 60 62 59
90 90 88 85 84 85 85 84 86 88 87 84 82 79 74 72 72 71 71 72 74 75 76 72 67 66 66 65 65 67 68 68 69 71 70 70 71 72 72 71 69 69 68 68 69 70 71 72 71 71 73 73 69 64 62 65 69 70 69 70 70 68 67 67 70 73 73 75 77 72 69 69 65 59 56 53 52 51 49 49 50 50 52 53 56 60 61 60
95 95 94 93 93 93 93 90 90 92 91 89 88 87 82 76 74 75 77 77 76 78 81 80 75 71 68 66 65 66 65 64 66 67 69 70 70 70 70 68 68 68 68 69 70 70 71 71 69 70 72 73 72 70 68 68 69 69 68 68 67 66 65 67 71 72 71 74 75 68 63 63 61 58 55 50 48 48 48 47 48 49 51 54 58 59 60 61
94 93 92 92 91 91 90 89 90 93 95 95 95 95 93 88 82 78 78 79 80 81 81 82 80 75 74 75 75 74 70 66 64 62 64 67 67 65 65 65 65 65 66 68 68 66 66 67 66 69 73 74 73 72 69 69 69 68 67 66 65 66 66 67 69 67 65 68 68 63 61 60 56 53 51 48 48 49 48 48 47 46 48 54 58 59 60 60
94 93 92 91 90 88 86 85 87 91 93 95 96 96 95 94 91 85 80 80 82 82 81 81 80 77 77 79 79 78 76 72 69 67 66 65 60 57 59 61 62 64 66 66 65 64 66 69 70 71 75 76 73 70 68 67 66 65 64 64 64 65 63 61 61 60 60 61 62 60 61 61 55 51 53 54 53 51 50 49 47 45 47 54 59 60 60 59
93 93 91 90 90 91 91 90 91 91 92 93 95 95 95 94 93 91 90 90 91 89 86 83 81 79 78 79 78 77 75 74 74 74 73 68 61 57 61 61 59 61 64 64 64 65 67 69 68 67 71 71 67 64 64 60 58 57 58 59 59 58 54 54 56 57 56 57 58 58 62 63 59 56 58 57 54 52 51 50 49 50 52 57 61 62 59 58
91 92 91 89 90 92 92 92 93 93 93 92 90 90 90 90 88 88 92 96 98 98 96 92 89 87 85 83 80 77 75 76 79 80 78 75 72 73 76 73 67 64 61 59 60 62 63 64 62 62 67 67 62 60 60 57 57 58 56 54 51 47 46 50 53 52 51 53 58 61 65 67 65 62 60 57 56 57 57 57 60 62 62 64 65 61 57 57
Wind_Direction
258 258 259 259 260 262 263 265 266 267 268 268 267 267 268 270 273 276 279 280 280 282 283 285 286 287 289 291 294 297 301 305 310 316 320 322 330 337 339 341 342 338 332 327 326 329 333 332 332 336 338 339 340 340 339 337 333 328 325 324 321 318 317 317 317 315 314 314 314 313 315 316 317 318 317 318 317 313 313 316 318 315 311 312 312 309 304 301
257 258 259 259 260 261 262 264 265 267 269 270 271 271 271 271 272 274 276 278 280 280 280 281 281 282 283 284 286 288 292 295 298 303 306 310 318 321 325 331 333 332 329 325 322 323 324 324 326 330 332 334 335 335 334 333 331 329 327 324 321 319 316 315 315 314 313 313 314 313 314 314 315 317 316 317 315 313 316 317 317 314 312 314 312 309 307 304
255 256 257 258 259 260 260 261 262 264 266 268 270 272 272 272 272 272 273 275 277 279 279 279 279 278 278 278 279 280 283 285 287 291 294 299 306 309 312 318 321 322 322 320 319 317 316 316 318 320 322 326 329 330 329 328 327 326 326 324 322 321 319 317 315 313 313 312 313 313 314 313 315 316 315 315 313 314 318 317 317 316 314 315 312 310 308 304
255 255 256 256 257 258 259 259 260 261 262 264 266 268 269 271 271 271 271 272 273 275 276 277 277 276 276 275 274 275 276 277 280 282 284 287 292 298 301 305 310 312 313 314 315 314 314 314 314 313 316 319 321 321 323 323 322 321 321 320 320 320 320 319 319 318 317 315 315 315 315 314 315 316 314 314 312 315 317 316 317 316 316 317 315 313 312 309
257 257 257 256 256 256 257 257 258 258 259 260 262 264 265 266 267 269 269 269 269 270 272 273 274 274 274 274 273 272 272 273 274 276 278 279 283 287 290 293 298 301 304 307 308 309 310 311 311 310 312 312 312 313 315 317 317 316 315 315 315 316 317 318 320 321 321 320 318 319 317 315 316 316 314 312 311 313 313 313 313 313 313 315 315 315 314 312
259 259 259 258 258 257 257 257 257 257 257 257 258 260 261 262 263 265 265 266 267 266 267 268 270 271 271 272 271 270 270 270 271 273 274 275 278 280 281 284 288 292 295 298 301 303 304 306 306 306 307 306 306 308 309 311 312 312 312 312 310 312 314 314 316 317 319 319 319 321 319 318 319 318 315 311 310 312 310 309 310 310 310 311 312 312 312 312
260 260 260 260 260 259 258 258 257 257 257 257 256 257 258 259 260 261 262 263 264 264 265 265 266 268 269 269 269 268 268 268 269 270 271 271 273 275 277 278 280 284 287 290 293 295 298 299 300 301 301 300 302 302 305 307 308 310 310 310 310 310 310 310 311 313 314 315 316 319 317 319 320 319 315 310 311 312 309 308 308 309 310 310 311 310 310 309
260 260 260 260 260 260 260 259 259 258 258 258 257 257 258 258 258 259 259 260 261 262 263 264 264 265 266 267 267 267 266 266 267 267 267 268 270 272 274 275 276 278 281 284 287 289 291 293 295 296 296 298 299 299 301 303 305 307 307 308 309 309 309 308 307 308 310 311 313 315 315 318 319 317 313 307 311 313 309 310 309 309 311 311 311 310 310 309
260 261 260 260 260 260 260 260 260 260 259 259 259 259 259 260 259 259 259 259 259 260 261 262 263 264 265 265 266 266 266 266 266 266 266 267 268 270 272 273 275 276 277 280 282 284 286 288 290 290 292 294 295 297 298 299 301 302 303 305 305 306 307 307 305 305 306 308 310 312 312 317 318 314 307 303 309 312 309 310 309 310 311 311 311 310 310 310
260 261 261 261 260 260 260 260 260 260 260 260 260 260 260 261 262 261 261 261 260 260 260 261 262 262 263 264 265 266 266 267 267 266 266 267 268 269 271 273 275 275 276 277 279 280 282 284 286 287 288 289 291 292 294 296 298 298 299 300 301 303 304 304 304 303 303 304 306 307 309 314 318 312 302 301 307 309 307 308 307 308 309 308 308 308 309 309
258 259 260 261 261 260 260 260 260 260 261 260 261 260 261 262 263 264 264 264 263 263 262 262 262 262 263 264 265 267 267 267 268 268 268 268 268 270 272 273 275 276 277 277 278 279 280 282 283 284 285 286 287 288 290 292 295 295 296 297 298 299 300 301 301 301 301 301 301 302 304 312 318 312 302 301 305 305 306 306 305 306 306 305 305 305 306 307
257 258 259 260 261 261 261 261 260 260 260 261 261 261 261 262 263 264 265 266 267 266 266 265 265 264 264 264 265 266 267 268 269 270 270 270 270 271 273 274 276 277 278 279 279 280 280 282 282 283 285 285 285 286 288 289 291 292 293 294 295 296 297 297 297 298 299 298 298 298 300 311 316 312 306 303 304 305 306 305 303 303 302 302 302 302 303 303
260 260 260 260 261 261 261 261 261 261 261 261 261 262 262 262 263 264 266 267 268 269 269 269 269 268 267 267 267 266 267 268 270 271 272 272 273 274 275 276 277 278 279 280 281 281 281 283 283 284 285 285 286 286 286 287 288 289 290 292 293 293 294 295 295 296 296 296 296 296 297 304 306 306 306 303 303 304 305 303 302 302 301 300 299 299 299 300
262 263 263 263 263 262 262 261 261 261 262 262 262 263 263 263 263 265 266 267 268 270 271 271 272 271 270 270 270 269 270 270 271 272 273 274 275 277 277 278 279 279 281 281 282 283 283 283 284 285 285 286 287 286 286 286 285 286 287 289 290 291 292 292 293 294 294 293 294 294 294 297 299 299 299 300 302 303 303 302 302 302 301 299 298 296 296 297
262 263 264 265 265 265 264 263 262 262 262 262 263 263 264 264 264 265 266 267 268 269 270 271 271 272 272 272 273 273 273 272 273 274 275 276 277 278 279 279 280 281 281 282 283 283 284 284 285 285 286 287 288 287 286 284 283 285 286 286 288 289 290 290 291 292 291 291 292 293 293 295 298 296 295 298 301 300 302 303 302 301 300 299 296 295 295 296
261 263 264 265 266 266 266 265 265 264 263 263 263 264 264 264 265 265 266 266 267 268 269 270 270 270 271 272 273 274 275 274 274 275 276 276 277 278 279 279 281 282 283 283 284 284 285 285 285 286 286 287 289 288 285 283 284 285 284 284 285 286 287 288 290 291 290 290 291 292 292 294 297 296 295 298 299 298 301 302 301 301 300 298 295 294 295 295
260 262 263 264 265 266 267 267 266 266 265 264 264 264 265 265 265 265 266 266 267 267 267 268 269 269 270 270 271 273 274 274 274 275 275 276 277 277 278 279 281 282 284 284 285 285 285 285 286 286 287 288 289 287 285 285 286 285 283 283 283 284 286 287 289 289 289 289 290 291 291 293 295 296 297 299 299 298 301 301 301 301 300 297 294 293 293 292
259 260 261 263 264 265 266 266 267 266 266 265 265 264 265 265 265 265 265 266 266 267 267 267 268 268 269 270 270 271 272 273 273 274 275 276 277 278 278 280 281 283 284 284 285 285 285 286 286 287 288 288 287 286 286 287 286 284 284 283 282 283 284 287 288 287 288 288 290 291 291 291 292 295 298 299 298 300 302 302 301 302 301 296 294 292 291 289
259 260 260 261 263 264 266 266 266 266 266 266 266 265 265 265 265 265 265 265 265 266 267 267 267 268 269 270 270 271 271 272 273 273 275 276 278 279 280 281 282 283 284 284 284 284 285 285 285 287 288 287 286 287 287 287 285 284 284 283 283 283 283 286 287 287 287 288 289 291 291 291 292 295 298 298 298 301 303 302 302 303 300 296 294 291 288 286
258 260 260 261 261 262 264 266 266 267 267 266 266 266 265 265 265 265 265 265 265 265 267 267 267 267 269 269 270 271 271 272 273 274 276 277 279 280 280 281 282 283 283 283 282 283 284 283 285 287 287 286 286 287 287 287 286 285 284 283 283 283 284 286 286 286 287 288 289 291 290 289 292 296 298 298 299 301 302 302 303 302 299 297 294 291 288 287
258 259 260 261 261 262 263 264 265 266 267 267 267 267 267 267 266 266 265 265 265 265 266 266 266 267 267 268 268 269 271 271 272 274 276 278 279 280 281 282 282 282 283 283 282 283 283 283 286 287 286 286 287 287 288 288 286 285 285 284 284 284 285 285 285 286 287 288 289 290 289 288 292 295 296 298 299 300 301 301 302 301 299 298 295 291 289 287
256 257 259 260 261 262 262 263 264 265 266 267 267 268 268 268 268 267 266 264 263 265 265 265 265 266 265 266 266 268 269 269 271 273 275 277 278 280 281 282 282 283 283 283 284 284 283 285 287 287 286 286 288 290 290 289 288 287 287 286 286 287 286 285 285 287 288 288 289 290 288 288 293 294 295 297 298 300 301 300 301 301 300 298 295 291 288 284
257 257 258 259 260 261 262 263 263 264 265 266 267 268 268 268 268 268 268 266 263 261 263 264 264 264 264 264 265 265 266 267 269 271 274 276 277 279 281 282 283 283 283 283 284 283 283 285 286 286 285 286 288 290 291 290 289 288 288 288 288 289 287 286 287 288 289 289 290 291 290 290 293 293 294 296 297 300 301 301 304 303 302 300 296 290 285 280
258 258 258 259 259 261 262 263 263 264 265 266 267 268 268 268 268 268 268 268 265 260 260 262 262 263 263 264 263 264 264 265 267 269 271 274 276 278 279 281 281 282 284 284 282 281 282 285 285 285 286 286 287 289 290 290 289 287 287 288 289 288 287 288 290 290 290 290 291 292 293 292 294 294 294 295 297 299 301 306 309 307 306 303 298 290 283 277
260 260 260 260 260 261 262 263 263 264 266 267 268 269 269 269 268 268 268 267 266 263 260 260 260 260 262 263 264 264 265 265 266 268 270 271 274 276 278 279 279 281 283 282 281 281 282 284 284 285 286 285 286 287 289 290 287 286 286 288 288 287 287 288 290 291 291 291 291 294 295 295 295 293 294 297 298 299 303 308 309 308 307 305 302 295 286 280
262 261 261 261 262 262 263 263 264 265 266 267 269 270 271 271 271 270 269 267 267 265 262 259 259 259 259 261 264 266 266 266 267 269 270 271 273 275 276 277 278 280 282 281 280 280 282 283 283 284 285 285 285 287 289 289 286 285 287 287 286 287 288 288 289 290 290 292 292 293 296 298 295 293 296 300 299 301 306 308 307 307 307 305 303 298 292 287
264 263 263 263 263 263 263 264 265 266 266 267 269 270 271 272 273 272 272 269 268 267 264 262 261 260 259 259 261 264 267 269 269 269 270 271 272 274 275 276 278 279 279 278 278 279 282 282 282 283 283 284 286 287 287 287 286 286 287 286 286 287 287 288 288 288 289 291 291 293 298 298 294 294 298 299 298 303 308 306 305 306 304 304 303 299 295 291
265 265 264 264 264 264 264 265 266 266 267 267 268 269 270 272 273 273 273 271 270 270 268 265 264 264 262 261 260 262 265 268 269 269 270 271 272 273 274 275 276 276 276 276 277 279 280 280 281 282 282 284 285 286 285 285 285 286 287 287 286 287 286 286 287 287 289 290 290 295 299 295 292 294 296 297 300 305 305 304 305 306 304 304 304 301 297 292
265 265 265 265 265 264 264 264 265 266 266 267 268 268 270 271 272 272 271 270 270 272 272 270 269 268 268 266 265 264 265 267 267 269 270 270 271 272 273 273 273 273 274 274 275 277 278 280 281 281 282 284 284 284 285 285 285 285 286 287 287 287 286 285 285 286 288 289 291 298 298 293 292 293 295 300 305 304 303 304 306 306 304 304 304 302 298 293
266 266 265 265 265 265 264 264 264 264 265 266 267 268 269 269 270 270 268 267 269 272 274 275 274 273 273 272 271 269 267 266 267 269 270 270 271 271 272 272 272 273 273 273 274 277 278 278 279 280 282 282 282 283 283 284 284 285 286 286 286 286 284 284 284 286 288 289 293 296 295 292 291 292 299 306 305 303 304 306 305 304 304 306 306 302 298 293
266 266 265 265 265 265 264 264 263 264 264 265 266 266 267 268 268 267 266 267 270 272 275 277 279 280 279 278 275 273 270 268 267 268 269 270 271 271 272 272 272 272 272 273 275 276 276 276 277 278 279 280 281 282 281 282 282 284 284 284 284 283 282 283 284 285 287 289 292 294 292 288 287 292 301 306 304 303 304 304 303 304 305 308 307 302 297 291
266 265 265 264 264 264 264 263 263 263 263 263 264 264 264 265 265 265 266 270 272 273 275 279 282 284 283 281 279 277 274 271 269 269 268 268 270 271 273 273 273 273 274 275 276 275 274 274 275 276 278 280 281 281 280 280 281 281 281 281 281 281 280 281 283 286 287 288 290 290 288 285 286 293 301 302 302 302 302 301 302 303 307 309 306 300 296 291
265 265 265 264 263 263 263 263 263 262 262 262 262 262 261 262 265 267 267 269 271 274 278 280 282 283 282 282 280 278 276 274 273 272 269 268 269 270 273 274 275 275 276 277 277 276 275 275 275 277 278 279 280 281 280 280 280 279 278 278 279 279 280 282 285 287 286 286 288 287 284 284 289 296 299 298 297 298 299 300 301 304 307 307 302 299 296 292
264 264 264 263 262 262 263 264 263 262 262 261 261 262 260 261 266 269 269 270 271 274 277 278 280 281 281 280 279 278 278 277 276 274 272 271 270 271 272 274 275 276 276 277 277 277 278 277 277 279 279 279 280 281 280 279 279 277 276 276 276 278 281 284 284 284 285 286 285 282 282 286 293 297 297 295 295 296 298 298 301 306 308 305 301 298 296 294
263 264 263 263 262 262 262 263 264 263 263 263 262 260 259 263 267 269 271 272 271 272 273 275 276 277 277 277 277 278 279 279 278 276 275 273 272 272 273 273 274 275 276 276 277 278 279 278 278 280 280 280 280 279 279 278 277 276 276 275 277 280 283 283 281 282 284 284 282 282 284 289 294 294 293 293 294 297 298 298 301 307 308 306 301 298 296 296
263 264 263 263 262 262 261 261 262 263 263 264 263 262 264 269 270 270 271 271 271 272 273 273 274 274 275 276 277 280 281 281 279 277 275 273 273 272 272 273 274 275 275 276 277 277 277 277 278 279 280 280 279 278 276 276 275 275 276 277 280 282 282 281 280 280 282 281 281 285 288 290 292 290 289 291 294 296 296 298 304 308 308 306 303 300 300 300
263 264 263 262 262 262 261 260 261 261 262 263 264 267 271 273 271 271 272 271 271 272 272 273 274 274 275 276 277 279 280 279 278 277 276 275 274 272 272 274 275 276 278 278 277 277 277 277 277 277 278 278 278 277 276 275 275 276 278 279 280 279 278 279 280 279 279 280 281 284 287 288 288 287 289 292 294 295 298 304 307 307 305 305 303 301 302 302
264 265 264 262 262 261 261 261 261 261 261 261 261 263 266 268 270 271 272 272 273 273 273 274 274 275 275 275 276 277 278 278 277 278 277 276 274 273 273 274 274 276 278 279 278 277 278 278 276 274 275 276 277 277 276 275 276 278 279 279 278 277 276 276 277 278 279 280 281 282 283 284 283 284 288 290 292 296 304 309 307 303 302 303 302 300 301 302
262 264 265 264 263 262 261 261 261 261 261 261 261 261 262 264 267 268 269 271 272 272 272 273 273 274 274 274 275 277 278 279 279 280 279 277 275 273 273 273 274 276 278 278 277 277 277 277 275 274 275 276 275 274 275 277 279 279 278 277 276 275 275 276 277 278 280 281 282 282 280 281 283 285 286 289 292 298 306 308 305 301 300 302 303 302 303 304
262 263 263 264 264 263 263 262 261 260 260 261 262 263 262 263 263 265 266 267 267 267 269 271 272 272 273 274 275 277 279 280 281 282 280 278 276 274 273 274 276 278 278 276 276 275 275 275 275 274 275 275 274 274 276 278 277 277 277 277 276 275 275 277 277 279 281 282 283 283 279 280 284 286 287 292 296 301 305 303 301 300 299 301 304 303 301 303
260 260 260 260 260 259 259 261 261 262 261 261 261 261 261 261 262 264 265 265 265 265 266 267 268 269 271 272 274 276 278 279 280 279 279 278 278 277 276 277 277 278 277 276 276 275 274 274 274 273 273 273 275 276 276 275 275 276 276 276 275 275 276 277 278 280 283 283 282 280 278 279 284 286 289 296 299 302 302 299 299 299 299 302 303 300 297 298
253 254 255 254 253 252 253 256 259 262 261 259 258 259 259 259 259 260 262 263 264 265 265 265 266 267 269 271 273 274 275 276 276 276 276 276 277 278 279 279 278 277 277 277 277 277 276 275 274 274 273 273 275 275 274 274 274 273 272 275 278 279 279 280 281 283 284 282 279 276 275 279 283 285 289 296 298 298 297 298 299 299 299 301 300 296 294 295
251 252 252 252 252 252 253 256 258 261 261 259 258 258 258 259 258 258 260 262 264 265 265 265 265 266 267 268 270 271 273 274 275 275 275 275 275 277 278 278 277 277 277 277 278 278 276 275 275 275 273 272 273 274 274 273 271 271 274 278 282 282 282 282 281 282 280 277 276 275 276 279 283 285 290 296 295 293 294 297 298 297 298 299 297 293 291 291
254 254 254 253 252 251 252 255 257 259 260 260 260 259 258 258 257 258 260 262 264 265 266 266 266 266 266 267 269 270 272 273 274 274 275 275 276 277 278 276 276 276 277 277 278 277 275 274 274 273 272 271 271 273 273 273 273 274 277 278 277 278 279 278 278 278 277 276 276 277 278 281 285 288 292 294 292 291 295 297 296 295 295 295 294 292 289 287
253 254 255 255 255 253 252 252 254 257 258 259 260 260 259 258 256 256 258 261 263 265 265 265 265 266 266 267 268 269 270 271 272 273 274 276 278 277 276 275 275 276 277 276 276 274 273 272 270 269 269 269 272 275 276 275 273 272 273 273 274 275 275 275 275 275 276 276 277 278 281 284 288 290 292 291 290 292 294 294 293 292 291 291 292 291 288 287
254 255 256 256 256 257 256 255 256 257 257 258 260 260 260 259 258 256 257 259 260 262 262 261 262 264 266 267 267 267 268 269 270 271 273 274 275 275 275 276 277 277 275 274 273 273 272 270 269 268 268 270 273 275 274 272 271 271 272 272 272 272 272 271 272 273 276 279 279 280 283 287 290 290 288 288 290 292 292 289 289 288 287 288 289 289 288 290
254 255 256 256 257 258 258 257 258 260 259 258 257 257 258 259 258 256 256 256 257 258 259 258 258 259 262 264 265 266 265 266 267 269 271 272 273 274 274 275 275 274 273 273 273 272 271 269 269 269 270 272 273 273 271 270 271 271 271 271 271 272 272 272 273 276 278 279 279 281 285 290 291 289 287 290 294 294 292 288 287 287 287 286 286 287 289 291
255 256 257 258 260 260 260 259 259 261 261 259 257 256 256 256 256 256 255 255 255 256 257 257 256 257 259 261 264 265 265 265 268 270 272 271 270 270 270 269 269 270 270 271 270 270 269 268 268 269 271 272 274 274 273 271 269 268 269 270 271 273 275 276 276 278 278 278 280 285 289 289 289 288 291 297 297 294 291 288 286 286 287 287 288 289 291 291
256 257 258 259 260 262 262 262 260 260 260 261 260 259 257 255 254 255 256 256 255 254 256 257 256 257 259 261 263 265 265 266 268 270 272 270 267 266 266 265 265 266 266 267 267 267 267 266 267 269 271 272 273 274 273 270 267 266 267 268 271 275 277 276 276 277 278 279 284 288 287 285 286 291 296 298 295 294 293 290 289 289 290 292 292 292 292 291
255 257 259 260 260 261 261 261 261 260 260 261 261 260 259 257 255 253 252 254 255 256 257 259 259 259 259 259 261 263 264 266 268 269 272 271 268 267 268 266 264 264 263 263 264 263 263 265 267 269 270 270 270 271 269 267 266 266 266 267 271 274 274 275 277 277 279 281 283 284 283 284 288 294 297 297 297 296 294 292 292 293 294 293 292 290 290 290
255 256 258 259 260 260 260 261 261 261 261 261 261 262 261 260 259 256 254 253 255 257 257 258 260 259 258 258 260 261 262 265 268 270 271 269 267 270 273 271 268 265 263 262 261 261 262 265 266 267 266 265 267 268 267 264 264 264 262 265 270 273 274 276 277 276 277 279 278 278 281 287 293 296 297 298 297 295 293 294 295 294 293 292 290 290 291 293
254 255 256 257 257 258 259 260 260 260 260 261 262 263 263 262 261 260 258 256 255 256 257 258 259 260 259 259 260 261 263 265 268 269 269 268 267 270 274 274 272 269 266 264 263 263 263 265 265 264 264 265 266 266 264 262 262 261 262 267 270 271 273 273 271 271 273 276 278 279 284 290 295 296 297 297 296 295 295 294 293 293 293 291 292 294 295 294
Height
5909 5909 5909 5909 5909 5909 5909 5909 5909 5909 5909 5909 5909 5909 5909 5909 5909 5909 5909 5909 5909 5908 5908 5908 5908 5907 5907 5907 5906 5906 5906 5905 5904 5903 5902 5902 5900 5900 5899 5898 5897 5896 5895 5894 5893 5892 5891 5890 5889 5888 5887 5886 5885 5884 5883 5882 5881 5880 5880 5879 5878 5877 5876 5875 5874 5873 5872 5871 5870 5869 5867 5866 5865 5864 5863 5862 5860 5859 5858 5857 5856 5855 5854 5853 5852 5852 5851 5850
5907 5907 5907 5907 5907 5907 5907 5907 5908 5908 5908 5908 5908 5908 5908 5908 5908 5907 5907 5907 5907 5907 5907 5907 5906 5906 5906 5906 5905 5905 5905 5904 5904 5903 5902 5901 5900 5899 5898 5897 5896 5895 5894 5894 5893 5892 5891 5890 5889 5887 5886 5886 5885 5884 5883 5882 5880 5879 5878 5878 5877 5876 5875 5874 5873 5872 5871 5870 5869 5868 5866 5865 5864 5863 5861 5860 5859 5857 5857 5856 5855 5853 5852 5851 5851 5850 5849 5848
5904 5905 5905 5905 5905 5905 5905 5905 5906 5906 5906 5906 5906 5906 5906 5906 5906 5906 5906 5906 5906 5906 5905 5905 5905 5905 5905 5905 5904 5904 5903 5903 5903 5902 5901 5900 5899 5898 5897 5896 5896 5895 5894 5893 5892 5891 5890 5889 5888 5887 5886 5885 5884 5883 5882 5881 5880 5878 5877 5876 5875 5874 5874 5873 5872 5871 5869 5868 5867 5866 5865 5864 5863 5862 5861 5859 5858 5856 5855 5854 5853 5852 5850 5850 5849 5848 5847 5846
5902 5902 5902 5903 5903 5903 5903 5903 5903 5903 5904 5904 5904 5904 5904 5904 5904 5904 5904 5904 5904 5904 5904 5904 5904 5903 5903 5903 5903 5902 5902 5901 5901 5901 5900 5899 5898 5897 5896 5896 5895 5894 5893 5892 5891 5890 5889 5888 5887 5886 5885 5884 5883 5882 5881 5880 5879 5878 5877 5875 5874 5873 5872 5871 5870 5869 5868 5867 5866 5865 5864 5862 5861 5860 5859 5858 5856 5855 5853 5852 5851 5849 5848 5848 5847 5845 5845 5844
5900 5900 5900 5900 5900 5900 5900 5900 5901 5901 5901 5901 5901 5901 5902 5902 5902 5902 5902 5902 5902 5902 5902 5902 5902 5902 5901 5901 5901 5901 5900 5900 5899 5899 5898 5898 5897 5896 5895 5894 5894 5893 5892 5891 5890 5889 5888 5887 5886 5885 5884 5883 5882 5881 5880 5879 5878 5877 5876 5874 5873 5872 5871 5870 5869 5867 5866 5865 5864 5863 5862 5860 5860 5858 5857 5856 5855 5853 5852 5850 5848 5847 5846 5845 5844 5843 5842 5841
5897 5897 5897 5897 5898 5898 5898 5898 5898 5898 5899 5899 5899 5899 5899 5899 5899 5899 5899 5899 5899 5899 5899 5900 5900 5899 5899 5899 5899 5899 5898 5898 5897 5897 5896 5896 5895 5894 5894 5893 5892 5891 5891 5890 5889 5887 5886 5885 5884 5883 5882 5881 5880 5879 5878 5877 5876 5875 5874 5873 5872 5871 5870 5868 5867 5866 5865 5863 5862 5861 5860 5859 5858 5857 5855 5853 5852 5851 5850 5848 5846 5845 5843 5842 5842 5841 5840 5839
5894 5894 5894 5894 5895 5895 5895 5895 5895 5896 5896 5896 5896 5896 5896 5896 5896 5896 5896 5896 5896 5897 5897 5897 5897 5897 5897 5897 5897 5896 5896 5896 5895 5895 5894 5894 5893 5893 5892 5891 5890 5890 5889 5888 5887 5886 5885 5884 5883 5882 5881 5880 5879 5877 5876 5875 5874 5873 5872 5871 5870 5869 5868 5867 5866 5864 5863 5862 5861 5859 5858 5857 5856 5855 5853 5850 5850 5849 5847 5846 5844 5842 5841 5840 5839 5838 5837 5836
5890 5890 5891 5891 5891 5892 5892 5892 5892 5892 5893 5893 5893 5893 5893 5893 5893 5893 5893 5893 5893 5893 5894 5894 5894 5894 5894 5894 5894 5894 5893 5893 5893 5892 5892 5891 5891 5890 5890 5889 5889 5888 5887 5886 5885 5884 5883 5882 5881 5880 5879 5877 5876 5875 5874 5873 5872 5871 5870 5869 5868 5867 5866 5865 5864 5863 5862 5860 5859 5858 5856 5856 5854 5853 5851 5848 5847 5847 5845 5844 5842 5840 5839 5837 5836 5835 5834 5833
5886 5887 5887 5887 5888 5888 5888 5889 5889 5889 5889 5890 5890 5890 5890 5890 5890 5890 5890 5890 5890 5890 5890 5891 5891 5891 5891 5891 5891 5891 5891 5890 5890 5890 5889 5889 5888 5888 5887 5887 5886 5886 5885 5884 5883 5882 5881 5880 5879 5878 5877 5876 5874 5873 5872 5871 5870 5869 5868 5867 5865 5864 5863 5862 5861 5860 5859 5858 5857 5856 5854 5854 5853 5851 5848 5845 5845 5845 5842 5841 5840 5838 5836 5834 5833 5832 5831 5830
5883 5883 5883 5884 5884 5884 5885 5885 5885 5885 5886 5886 5887 5887 5887 5887 5887 5887 5887 5887 5887 5887 5887 5887 5887 5888 5888 5888 5888 5888 5887 5887 5887 5887 5886 5886 5886 5885 5885 5884 5884 5883 5882 5882 5881 5880 5879 5878 5877 5876 5875 5874 5873 5871 5870 5869 5868 5867 5865 5864 5863 5862 5861 5859 5858 5857 5856 5855 5855 5854 5853 5851 5851 5849 5846 5843 5843 5843 5840 5839 5837 5836 5834 5832 5831 5830 5829 5827
5879 5879 5880 5880 5880 5880 5881 5881 5881 5882 5882 5882 5882 5883 5884 5884 5883 5883 5884 5884 5884 5884 5884 5884 5884 5884 5884 5884 5885 5884 5884 5884 5884 5884 5883 5883 5883 5882 5882 5882 5881 5880 5880 5879 5879 5877 5876 5876 5875 5874 5873 5872 5871 5869 5868 5867 5865 5864 5863 5862 5861 5859 5858 5857 5855 5854 5853 5852 5851 5852 5852 5850 5848 5847 5844 5841 5841 5840 5839 5837 5835 5834 5832 5830 5829 5827 5826 5825
5876 5876 5876 5876 5876 5877 5877 5877 5878 5878 5878 5878 5878 5879 5879 5880 5880 5880 5880 5880 5880 5881 5881 5881 5881 5881 5881 5881 5881 5881 5881 5881 5881 5880 5880 5880 5880 5880 5879 5879 5878 5878 5877 5876 5876 5875 5874 5873 5872 5871 5870 5869 5868 5867 5866 5865 5863 5862 5860 5859 5858 5856 5855 5854 5852 5851 5849 5848 5847 5847 5850 5850 5846 5844 5841 5839 5838 5838 5837 5834 5832 5831 5830 5828 5826 5825 5823 5822
5872 5873 5873 5873 5873 5873 5873 5874 5874 5874 5874 5874 5874 5875 5875 5876 5876 5876 5876 5876 5876 5877 5877 5877 5877 5877 5877 5878 5877 5877 5878 5877 5877 5877 5877 5877 5877 5877 5876 5876 5875 5875 5874 5873 5873 5872 5871 5870 5869 5868 5868 5866 5865 5864 5863 5862 5861 5859 5857 5856 5855 5853 5852 5851 5849 5848 5846 5844 5843 5842 5845 5849 5845 5841 5838 5836 5835 5835 5835 5832 5830 5829 5827 5826 5824 5822 5821 5819
5869 5869 5870 5869 5870 5870 5870 5870 5870 5870 5870 5870 5871 5871 5871 5872 5872 5872 5872 5873 5873 5873 5873 5873 5873 5873 5873 5874 5874 5874 5874 5874 5874 5873 5873 5873 5873 5873 5873 5872 5872 5871 5871 5870 5869 5868 5867 5867 5866 5865 5865 5863 5862 5861 5860 5859 5858 5856 5854 5853 5852 5850 5849 5848 5845 5844 5843 5841 5840 5837 5838 5845 5845 5839 5835 5833 5832 5831 5832 5830 5828 5826 5824 5823 5821 5819 5817 5816
5865 5866 5866 5866 5866 5866 5867 5867 5867 5867 5867 5867 5867 5867 5867 5867 5868 5868 5868 5869 5869 5869 5868 5869 5868 5868 5869 5870 5870 5870 5870 5870 5870 5869 5869 5870 5870 5870 5869 5868 5868 5867 5867 5866 5865 5864 5864 5863 5862 5862 5861 5860 5859 5858 5856 5855 5855 5853 5851 5850 5849 5847 5845 5844 5842 5840 5838 5837 5837 5833 5831 5838 5843 5838 5832 5830 5829 5828 5828 5827 5825 5824 5822 5819 5817 5815 5814 5812
5861 5862 5862 5862 5863 5863 5863 5863 5864 5863 5863 5863 5862 5862 5862 5863 5864 5864 5864 5865 5864 5864 5864 5864 5864 5863 5864 5866 5866 5866 5866 5865 5865 5866 5866 5866 5865 5865 5865 5864 5863 5863 5862 5862 5861 5860 5859 5859 5859 5859 5858 5857 5855 5854 5852 5851 5852 5850 5847 5846 5846 5844 5842 5841 5839 5835 5833 5832 5832 5830 5826 5831 5837 5836 5832 5828 5826 5825 5825 5824 5821 5820 5819 5816 5813 5811 5811 5808
5857 5857 5858 5858 5859 5859 5859 5859 5860 5860 5860 5859 5859 5858 5858 5858 5859 5859 5860 5860 5859 5860 5859 5859 5860 5858 5859 5862 5862 5861 5861 5860 5861 5861 5861 5861 5861 5860 5860 5859 5859 5858 5858 5857 5857 5856 5855 5855 5855 5855 5855 5853 5851 5849 5847 5848 5848 5846 5844 5843 5842 5840 5838 5837 5836 5831 5827 5826 5827 5825 5822 5824 5829 5831 5830 5826 5822 5821 5822 5820 5818 5817 5816 5813 5810 5808 5807 5805
5853 5853 5853 5853 5854 5855 5855 5855 5856 5856 5856 5855 5855 5854 5853 5853 5854 5855 5855 5855 5854 5855 5854 5854 5855 5853 5855 5857 5857 5856 5856 5856 5857 5857 5857 5857 5856 5856 5855 5855 5854 5854 5853 5853 5852 5851 5850 5850 5851 5851 5851 5849 5847 5845 5843 5844 5844 5841 5840 5838 5838 5837 5835 5835 5832 5827 5823 5820 5821 5820 5816 5818 5821 5824 5826 5823 5818 5817 5818 5816 5814 5813 5812 5809 5806 5804 5803 5801
5848 5848 5849 5849 5849 5850 5850 5851 5852 5852 5852 5851 5850 5850 5849 5848 5849 5850 5850 5850 5850 5850 5849 5849 5849 5848 5850 5853 5852 5851 5851 5851 5852 5852 5852 5852 5851 5851 5851 5850 5850 5849 5849 5848 5847 5846 5846 5845 5846 5847 5847 5844 5842 5841 5839 5839 5838 5837 5836 5834 5833 5832 5831 5832 5827 5823 5819 5814 5816 5816 5810 5810 5814 5817 5820 5819 5815 5812 5812 5812 5810 5809 5807 5804 5802 5800 5798 5796
5844 5844 5844 5844 5845 5845 5845 5846 5847 5847 5847 5847 5846 5845 5845 5844 5844 5844 5845 5845 5845 5845 5844 5844 5844 5844 5846 5847 5847 5846 5846 5847 5847 5848 5848 5848 5847 5846 5846 5845 5845 5845 5844 5843 5842 5842 5841 5840 5842 5844 5841 5839 5837 5836 5835 5834 5833 5831 5830 5829 5828 5826 5826 5827 5822 5818 5816 5809 5809 5811 5805 5803 5808 5811 5813 5813 5811 5808 5807 5806 5805 5804 5801 5799 5798 5796 5794 5791
5839 5839 5840 5840 5840 5841 5840 5841 5842 5842 5842 5842 5841 5840 5840 5840 5839 5839 5840 5840 5839 5840 5840 5839 5838 5840 5842 5842 5841 5841 5842 5842 5843 5844 5844 5843 5843 5841 5841 5841 5840 5840 5840 5838 5836 5836 5835 5834 5838 5839 5836 5834 5832 5831 5830 5828 5827 5825 5824 5823 5822 5822 5820 5820 5817 5814 5812 5805 5803 5805 5800 5798 5803 5804 5806 5808 5805 5803 5802 5801 5800 5799 5797 5794 5792 5791 5789 5787
5834 5834 5835 5835 5836 5836 5835 5836 5836 5836 5837 5836 5836 5836 5835 5835 5834 5833 5833 5833 5835 5835 5833 5833 5834 5835 5837 5836 5836 5837 5837 5838 5839 5840 5840 5839 5838 5837 5836 5836 5836 5835 5835 5833 5832 5830 5829 5831 5833 5833 5830 5829 5827 5826 5825 5823 5821 5820 5819 5817 5817 5817 5815 5812 5812 5810 5807 5801 5798 5798 5793 5794 5799 5798 5800 5803 5800 5798 5796 5795 5796 5794 5792 5790 5788 5786 5784 5782
5828 5829 5830 5830 5831 5831 5830 5831 5831 5831 5831 5831 5831 5831 5830 5830 5829 5828 5825 5824 5827 5831 5828 5827 5828 5829 5831 5831 5832 5832 5832 5834 5835 5836 5836 5835 5834 5833 5831 5832 5831 5830 5830 5829 5827 5824 5824 5827 5828 5827 5825 5824 5822 5821 5820 5818 5816 5814 5813 5812 5811 5812 5809 5805 5806 5805 5802 5797 5793 5791 5786 5788 5793 5791 5794 5798 5796 5794 5789 5788 5790 5788 5786 5785 5783 5782 5780 5778
5822 5824 5824 5825 5826 5825 5825 5825 5825 5825 5826 5826 5826 5825 5824 5824 5823 5822 5820 5814 5814 5823 5825 5822 5822 5822 5824 5826 5827 5827 5828 5829 5831 5832 5833 5830 5829 5828 5827 5827 5826 5825 5826 5825 5822 5819 5820 5823 5823 5822 5821 5819 5818 5817 5816 5813 5810 5808 5808 5807 5806 5806 5803 5800 5799 5798 5796 5793 5790 5786 5779 5780 5785 5784 5787 5791 5792 5790 5785 5782 5783 5781 5780 5779 5777 5777 5775 5774
5817 5818 5818 5819 5820 5820 5819 5819 5820 5820 5820 5820 5820 5820 5819 5818 5818 5816 5814 5807 5801 5811 5820 5817 5815 5817 5819 5819 5821 5823 5823 5824 5826 5828 5828 5826 5825 5823 5822 5822 5821 5821 5822 5820 5816 5813 5816 5818 5817 5816 5816 5814 5812 5812 5812 5808 5803 5802 5803 5804 5802 5799 5798 5796 5793 5791 5788 5786 5786 5783 5774 5770 5775 5776 5779 5784 5784 5785 5784 5779 5776 5773 5772 5773 5773 5772 5771 5770
5810 5811 5812 5813 5814 5815 5814 5813 5814 5815 5814 5815 5814 5814 5813 5812 5812 5810 5809 5800 5790 5798 5810 5809 5808 5811 5814 5816 5816 5817 5815 5817 5822 5823 5822 5822 5821 5819 5817 5817 5817 5816 5816 5814 5810 5808 5811 5814 5811 5810 5810 5808 5807 5807 5807 5803 5797 5795 5798 5799 5796 5794 5793 5791 5789 5785 5781 5779 5778 5780 5775 5763 5759 5766 5772 5776 5775 5776 5779 5778 5773 5769 5766 5767 5768 5767 5765 5765
5804 5805 5806 5806 5808 5808 5808 5808 5808 5808 5809 5809 5808 5808 5807 5806 5806 5805 5803 5793 5780 5786 5796 5799 5801 5805 5809 5812 5813 5812 5810 5811 5816 5816 5815 5815 5814 5814 5811 5812 5812 5811 5810 5808 5803 5803 5807 5808 5806 5806 5804 5803 5803 5802 5802 5798 5792 5790 5792 5793 5791 5790 5788 5784 5783 5780 5776 5774 5769 5775 5779 5761 5746 5755 5765 5768 5768 5770 5772 5772 5770 5766 5762 5760 5761 5761 5761 5759
5798 5798 5799 5800 5801 5801 5802 5802 5802 5802 5802 5802 5802 5801 5801 5801 5800 5799 5798 5785 5772 5776 5784 5789 5794 5797 5801 5806 5808 5809 5807 5807 5808 5808 5809 5809 5808 5807 5806 5806 5807 5804 5804 5801 5798 5800 5802 5801 5801 5800 5799 5798 5798 5797 5796 5794 5789 5786 5786 5786 5785 5784 5782 5779 5777 5774 5772 5768 5761 5769 5778 5759 5739 5745 5757 5759 5763 5765 5766 5766 5764 5763 5760 5757 5755 5754 5754 5753
5792 5792 5793 5793 5794 5795 5796 5796 5795 5795 5795 5795 5795 5795 5795 5795 5794 5793 5790 5776 5766 5769 5774 5780 5786 5789 5793 5798 5802 5804 5804 5803 5802 5801 5802 5802 5801 5801 5800 5800 5799 5797 5798 5795 5793 5795 5796 5795 5795 5794 5794 5794 5793 5791 5790 5789 5785 5783 5781 5780 5779 5778 5776 5774 5771 5769 5768 5760 5757 5765 5771 5757 5737 5737 5747 5753 5756 5758 5758 5759 5758 5757 5756 5754 5752 5749 5747 5745
5786 5787 5788 5787 5788 5788 5788 5789 5788 5788 5788 5788 5788 5788 5789 5789 5788 5786 5777 5765 5764 5768 5768 5772 5779 5783 5786 5789 5794 5797 5797 5797 5796 5795 5795 5794 5794 5794 5793 5793 5792 5791 5791 5789 5788 5791 5790 5789 5788 5788 5788 5788 5787 5786 5784 5782 5780 5779 5777 5774 5773 5771 5769 5767 5765 5765 5763 5754 5754 5760 5763 5755 5738 5730 5740 5748 5749 5749 5751 5752 5751 5750 5750 5749 5747 5744 5742 5739
5780 5780 5782 5782 5781 5781 5781 5782 5781 5781 5782 5781 5781 5782 5782 5781 5781 5775 5762 5757 5765 5768 5766 5767 5771 5777 5780 5781 5783 5786 5788 5789 5789 5789 5788 5787 5787 5786 5786 5786 5785 5784 5783 5782 5784 5785 5783 5782 5782 5782 5782 5782 5781 5780 5778 5776 5775 5774 5772 5769 5767 5764 5761 5760 5759 5760 5757 5750 5750 5753 5753 5749 5735 5729 5739 5743 5741 5742 5743 5744 5745 5744 5743 5742 5741 5738 5736 5734
5772 5773 5775 5776 5775 5775 5774 5773 5774 5775 5774 5774 5775 5775 5775 5774 5770 5761 5754 5758 5763 5761 5764 5767 5767 5770 5772 5772 5773 5775 5777 5779 5781 5781 5781 5780 5779 5778 5779 5779 5778 5777 5775 5776 5777 5777 5776 5776 5776 5775 5775 5776 5774 5773 5771 5770 5769 5768 5766 5764 5761 5758 5755 5754 5754 5754 5750 5746 5745 5745 5742 5737 5729 5731 5737 5736 5735 5737 5735 5736 5739 5739 5737 5736 5734 5732 5730 5728
5763 5765 5767 5767 5768 5768 5766 5765 5767 5768 5766 5767 5767 5767 5768 5764 5756 5751 5754 5758 5758 5757 5761 5763 5762 5763 5763 5763 5765 5766 5766 5768 5771 5772 5772 5772 5771 5771 5772 5771 5771 5770 5769 5770 5769 5768 5767 5768 5768 5768 5769 5769 5767 5766 5765 5763 5762 5760 5759 5758 5755 5753 5750 5748 5749 5746 5741 5740 5740 5738 5733 5727 5723 5729 5732 5730 5731 5733 5730 5729 5731 5732 5732 5731 5728 5725 5723 5721
5754 5757 5758 5759 5760 5761 5759 5757 5758 5759 5758 5759 5759 5759 5760 5754 5746 5747 5751 5754 5756 5756 5757 5756 5756 5757 5755 5755 5756 5758 5759 5759 5761 5762 5763 5763 5762 5764 5765 5765 5764 5764 5763 5762 5761 5760 5759 5758 5760 5761 5761 5762 5760 5759 5758 5756 5754 5752 5752 5751 5747 5748 5747 5744 5743 5738 5734 5734 5733 5728 5726 5722 5721 5723 5723 5721 5723 5726 5726 5724 5724 5725 5726 5725 5723 5719 5716 5714
5746 5748 5750 5751 5753 5754 5752 5749 5748 5750 5749 5749 5750 5751 5750 5746 5743 5745 5748 5749 5750 5752 5752 5751 5751 5750 5748 5747 5748 5750 5752 5751 5753 5753 5752 5753 5753 5755 5757 5757 5758 5758 5756 5754 5753 5753 5750 5749 5752 5751 5751 5754 5752 5751 5750 5748 5746 5744 5744 5742 5740 5744 5743 5737 5734 5733 5730 5727 5723 5720 5719 5719 5720 5717 5714 5714 5715 5719 5720 5717 5718 5720 5720 5719 5717 5713 5710 5709
5736 5739 5741 5742 5745 5745 5743 5740 5739 5739 5740 5740 5739 5740 5741 5742 5742 5742 5743 5744 5743 5744 5745 5745 5745 5743 5741 5740 5741 5744 5745 5744 5745 5744 5743 5745 5745 5747 5748 5749 5751 5750 5749 5747 5746 5745 5741 5741 5745 5742 5741 5744 5742 5742 5742 5740 5738 5737 5736 5736 5736 5737 5734 5729 5727 5728 5726 5719 5716 5716 5711 5712 5714 5709 5707 5709 5709 5712 5714 5712 5713 5714 5714 5712 5709 5706 5704 5703
5726 5729 5732 5735 5737 5735 5732 5732 5730 5729 5731 5731 5728 5732 5735 5735 5736 5737 5737 5736 5736 5736 5736 5736 5737 5736 5735 5734 5735 5737 5737 5735 5735 5735 5736 5737 5737 5739 5741 5742 5742 5741 5742 5740 5737 5737 5734 5732 5737 5735 5732 5733 5733 5732 5732 5731 5730 5729 5729 5731 5730 5727 5724 5722 5719 5719 5719 5713 5711 5714 5708 5705 5705 5700 5700 5703 5702 5703 5707 5708 5708 5707 5707 5704 5701 5699 5698 5696
5718 5718 5721 5726 5729 5725 5723 5723 5721 5720 5721 5719 5720 5727 5728 5726 5730 5731 5729 5729 5729 5729 5728 5728 5728 5727 5728 5728 5728 5729 5729 5727 5728 5727 5728 5729 5728 5730 5733 5734 5734 5733 5735 5732 5728 5729 5726 5723 5726 5727 5723 5724 5725 5723 5721 5721 5722 5722 5723 5723 5721 5717 5715 5715 5712 5711 5712 5707 5705 5708 5705 5698 5696 5696 5697 5696 5696 5697 5701 5703 5701 5699 5699 5696 5693 5692 5690 5688
5710 5707 5709 5717 5719 5714 5711 5711 5710 5709 5707 5708 5713 5719 5722 5722 5724 5724 5722 5724 5724 5722 5719 5719 5719 5718 5719 5719 5719 5720 5720 5719 5721 5721 5720 5721 5720 5721 5724 5724 5724 5726 5727 5723 5719 5720 5718 5713 5715 5718 5716 5716 5717 5715 5713 5715 5716 5714 5713 5712 5710 5708 5706 5706 5705 5705 5704 5700 5698 5699 5698 5692 5689 5693 5694 5691 5693 5696 5697 5696 5694 5692 5691 5687 5685 5684 5680 5676
5702 5697 5697 5707 5708 5702 5700 5699 5697 5695 5695 5700 5706 5711 5715 5715 5715 5715 5716 5716 5716 5713 5711 5711 5711 5710 5710 5711 5710 5712 5712 5710 5712 5712 5710 5711 5711 5713 5715 5715 5716 5717 5716 5713 5710 5710 5708 5704 5705 5708 5707 5705 5707 5708 5708 5709 5707 5704 5703 5702 5700 5699 5698 5697 5697 5698 5696 5692 5691 5690 5686 5686 5686 5686 5686 5686 5688 5691 5691 5689 5687 5687 5684 5679 5677 5677 5673 5667
5694 5686 5686 5696 5696 5692 5691 5685 5683 5685 5685 5691 5698 5701 5704 5704 5706 5708 5707 5705 5705 5704 5704 5703 5702 5702 5702 5702 5703 5705 5703 5701 5702 5701 5699 5702 5704 5705 5707 5707 5708 5708 5706 5703 5702 5700 5698 5694 5694 5697 5697 5697 5700 5702 5701 5699 5697 5695 5693 5692 5692 5692 5692 5688 5686 5690 5689 5684 5684 5679 5671 5677 5683 5680 5680 5683 5683 5684 5683 5680 5680 5680 5677 5673 5671 5670 5666 5662
5680 5674 5677 5682 5681 5682 5681 5672 5673 5675 5673 5681 5690 5691 5692 5694 5697 5698 5696 5695 5694 5694 5695 5694 5694 5695 5694 5695 5696 5696 5694 5691 5692 5691 5690 5694 5696 5698 5701 5701 5698 5699 5697 5694 5693 5692 5689 5684 5682 5685 5688 5691 5693 5694 5692 5689 5687 5685 5683 5684 5686 5686 5686 5681 5677 5681 5681 5675 5675 5668 5657 5665 5678 5677 5678 5681 5679 5677 5675 5674 5673 5671 5669 5667 5665 5662 5657 5653
5668 5665 5667 5667 5667 5671 5668 5660 5662 5663 5664 5675 5680 5679 5682 5682 5684 5687 5687 5685 5684 5685 5686 5686 5687 5686 5686 5688 5688 5686 5685 5682 5682 5682 5682 5684 5688 5692 5695 5693 5689 5689 5689 5686 5685 5684 5679 5673 5672 5673 5676 5681 5685 5686 5683 5679 5675 5674 5676 5681 5681 5678 5679 5675 5670 5670 5668 5664 5666 5656 5645 5655 5671 5673 5675 5676 5673 5670 5668 5668 5666 5663 5661 5660 5657 5654 5650 5645
5660 5658 5655 5654 5655 5657 5653 5650 5653 5653 5657 5665 5667 5668 5672 5670 5671 5678 5679 5675 5676 5678 5678 5677 5678 5677 5677 5679 5678 5677 5677 5673 5671 5674 5673 5674 5680 5685 5685 5683 5680 5679 5680 5679 5676 5673 5668 5665 5663 5662 5662 5667 5674 5676 5673 5671 5668 5667 5671 5674 5672 5670 5671 5666 5662 5660 5654 5653 5657 5646 5635 5647 5664 5668 5670 5669 5664 5662 5662 5660 5657 5655 5653 5651 5648 5646 5643 5638
5651 5647 5643 5643 5642 5641 5642 5646 5646 5643 5646 5652 5653 5657 5660 5657 5662 5670 5669 5666 5668 5670 5668 5667 5668 5668 5668 5670 5668 5668 5669 5664 5663 5665 5666 5667 5672 5675 5674 5670 5670 5672 5672 5670 5666 5661 5657 5655 5654 5652 5649 5652 5661 5667 5667 5665 5661 5659 5662 5664 5662 5663 5661 5656 5655 5650 5640 5641 5646 5638 5630 5639 5654 5660 5662 5660 5655 5654 5656 5653 5649 5648 5645 5643 5641 5637 5633 5632
5637 5632 5630 5631 5630 5627 5630 5638 5637 5631 5636 5641 5640 5644 5648 5648 5654 5660 5659 5658 5661 5661 5658 5656 5658 5659 5658 5659 5658 5657 5659 5658 5656 5655 5658 5662 5664 5663 5661 5659 5661 5663 5662 5659 5656 5650 5646 5643 5642 5641 5639 5640 5649 5658 5661 5657 5649 5648 5652 5653 5652 5652 5652 5649 5645 5638 5633 5632 5632 5633 5631 5632 5642 5651 5653 5651 5648 5647 5647 5644 5640 5639 5637 5635 5633 5628 5625 5625
5620 5616 5618 5621 5619 5614 5616 5624 5627 5623 5626 5630 5627 5631 5637 5639 5642 5646 5646 5648 5652 5650 5646 5645 5648 5648 5648 5651 5649 5647 5649 5649 5646 5645 5650 5654 5655 5652 5650 5650 5651 5651 5650 5649 5646 5641 5635 5630 5630 5631 5629 5631 5638 5646 5652 5648 5640 5638 5641 5641 5642 5642 5642 5641 5634 5630 5632 5623 5616 5627 5634 5626 5629 5639 5642 5643 5642 5638 5636 5633 5630 5630 5628 5626 5624 5621 5619 5619
5607 5605 5610 5612 5606 5601 5602 5613 5620 5617 5614 5615 5614 5617 5624 5627 5629 5633 5636 5638 5639 5637 5634 5634 5637 5638 5641 5644 5640 5636 5637 5637 5635 5638 5641 5643 5644 5640 5639 5640 5640 5639 5639 5637 5635 5632 5624 5618 5622 5623 5619 5621 5626 5631 5638 5637 5630 5627 5628 5629 5631 5633 5633 5631 5626 5625 5626 5614 5607 5620 5627 5619 5619 5628 5633 5635 5632 5627 5625 5624 5623 5622 5619 5615 5613 5612 5612 5610
5599 5598 5601 5601 5595 5591 5593 5600 5607 5604 5600 5601 5600 5601 5609 5615 5619 5624 5628 5625 5623 5623 5624 5622 5626 5632 5634 5634 5629 5623 5624 5626 5628 5633 5634 5631 5631 5629 5627 5627 5628 5628 5627 5624 5623 5622 5614 5610 5615 5616 5610 5611 5615 5619 5624 5624 5619 5618 5619 5618 5621 5625 5625 5621 5618 5619 5618 5609 5606 5612 5611 5608 5614 5622 5624 5623 5621 5618 5616 5614 5614 5615 5612 5607 5604 5602 5602 5601
5590 5590 5591 5589 5584 5584 5585 5587 5591 5589 5588 5590 5586 5587 5596 5602 5606 5615 5617 5612 5609 5612 5614 5612 5618 5625 5624 5620 5615 5610 5613 5619 5621 5624 5625 5619 5617 5619 5616 5615 5617 5616 5614 5613 5613 5611 5606 5602 5607 5608 5599 5596 5605 5611 5612 5611 5608 5607 5606 5609 5615 5618 5615 5612 5611 5613 5611 5605 5603 5602 5596 5597 5610 5616 5613 5611 5612 5610 5607 5605 5606 5606 5604 5599 5594 5593 5594 5594
5579 5580 5581 5576 5570 5572 5575 5577 5579 5576 5575 5576 5575 5578 5584 5587 5595 5604 5603 5599 5598 5598 5601 5604 5608 5612 5610 5605 5601 5602 5610 5615 5611 5612 5614 5607 5605 5607 5604 5605 5608 5604 5602 5605 5604 5600 5597 5594 5598 5598 5586 5584 5598 5603 5599 5600 5597 5590 5593 5603 5611 5611 5607 5605 5606 5605 5602 5598 5595 5592 5587 5590 5602 5607 5602 5602 5602 5599 5597 5597 5597 5597 5595 5589 5584 5585 5587 5586
5568 5566 5569 5565 5556 5558 5563 5565 5566 5562 5560 5566 5570 5572 5573 5576 5586 5590 5583 5582 5587 5589 5593 5596 5596 5596 5593 5590 5593 5601 5608 5606 5598 5596 5598 5595 5595 5595 5593 5595 5598 5595 5595 5597 5595 5592 5590 5587 5589 5588 5576 5577 5592 5593 5588 5588 5578 5572 5587 5602 5603 5601 5600 5598 5597 5596 5596 5592 5586 5582 5582 5586 5594 5595 5592 5591 5591 5588 5586 5586 5586 5587 5584 5577 5575 5577 5577 5576